{"data":{"norad_id":66683,"intl_designator":"2025-276T","name":"6GSTARLAB","alt_names":[],"object_type":"PAYLOAD","status":"ACTIVE","operator":null,"country":"SPN","launch_date":"2025-11-28","launch_site_code":"AFWTR","launch_vehicle":null,"mission":null,"orbit_class":"UNKNOWN","rcs_meters":null,"size_class":null,"mass_kg":null,"dimensions":null,"purposes":[],"wikipedia_slug":null,"has_3d_model":false,"image_url":null,"decayed_at":null,"tle_current":{"epoch":"2026-09-20T03:19:03.968832Z","epoch_age_seconds":152232,"freshness":"FRESH","line1":"1 66683U 25276T   26263.13824038  .00001795  00000+0  89378-4 0  9999","line2":"2 66683  97.4164 334.7864 0006573  37.4784 322.6908 15.18837838 44810","mean_motion":15.18837838,"eccentricity":0.0006573,"inclination_deg":97.4164,"raan_deg":334.7864,"arg_perigee_deg":37.4784,"mean_anomaly_deg":322.6908,"bstar":8.9378e-5,"rev_number":4481,"period_min":94.809331448852,"perigee_km":504.82460687986,"apogee_km":513.87889959486,"semimajor_km":6887.4887532374,"source":"CELESTRAK","updated_at":"2026-09-21T09:00:16.124029Z"}}}